#timestamp,LO_Frequency,Hit 
1503954015.4,286046998.5,N
1503954035.3,286046998.2,N
1503954055.1,286046999.8,N
1503954075.8,286047003.8,N
1503954095.7,286047004.4,N
1503954115.5,286046999.7,N
1503954135.3,286047001.7,N
1503954155.2,286047003.4,N
1503954175.9,286047003.5,N
1503954195.7,286047003.7,N
1503954215.6,286047004.3,N
1503954235.4,286047001.5,N
1503954255.2,286047004.0,N
1503954275.0,286047001.8,N
1503954275.9,286047001.8,N
1503954295.8,286047004.1,N
1503954315.6,286047002.0,N
1503954335.4,286047002.4,N
1503954355.3,286046999.9,N
1503954375.1,286047002.2,N
1503954376.0,286047002.2,N
1503954395.8,286047002.1,N
1503954415.7,286047005.7,N
1503954435.5,286047004.7,N
1503954455.3,286047006.8,N
1503954475.2,286047007.4,N
1503954495.9,286047006.0,N
1503954515.7,286047005.0,N
1503954535.5,286047004.8,N
1503954555.4,286047007.5,N
1503954575.2,286047004.6,N
1503954595.1,286047007.3,P
1503954596.0,286047007.3,P
1503954615.8,286047005.8,P
1503954635.6,286047003.0,N
1503954655.5,286047005.6,N
1503954675.3,286047003.3,N
1503954695.1,286047005.2,N
1503954715.8,286047003.3,N
1503954735.7,286047003.2,N
1503954755.5,286047003.1,N
1503954775.3,286047007.1,P
1503954795.2,286046998.1,N
1503954815.0,286047002.3,N
1503954815.9,286047002.3,N
1503954835.7,286046999.9,N
1503954855.6,286047004.2,N
1503954875.4,286047003.6,N
1503954895.2,286047003.3,N
1503954915.1,286047006.0,N
1503954916.0,286047006.0,N
1503954935.8,286047002.0,N
1503954955.6,286047001.4,N
1503954975.5,286047003.8,N
1503954995.3,286047004.9,N
1503955015.1,286047004.7,N
1503955035.9,286047005.6,N
1503955055.7,286047004.8,N
1503955075.5,286047004.8,N
1503955095.4,286047001.4,N
1503955115.2,286047003.8,N
1503955135.0,286047003.6,N
1503955135.9,286047003.6,N
1503955155.7,286047002.7,N
1503955175.6,286047002.3,N
1503955195.4,286047001.3,N
1503955215.2,286047002.4,N
1503955235.1,286047003.5,N
1503955236.0,286047003.5,N
1503955255.8,286047002.9,N
1503955275.6,286047005.1,N
1503955295.5,286047009.2,P
1503955315.3,286047004.9,N
1503955335.1,286047007.1,N
1503955355.9,286047005.5,N
1503955375.7,286047003.4,N
1503955395.5,286047007.6,P
1503955415.4,286046999.9,N
1503955435.2,286047002.4,N
1503955455.0,286047001.0,N
1503955455.9,286047001.0,N
1503955475.8,286047001.5,N
1503955495.6,286047005.8,N
1503955515.4,286047003.5,N
1503955535.3,286047003.5,N
1503955555.1,286047005.8,N
1503955556.0,286047005.8,N
1503955575.8,286047002.4,N
1503955595.7,286047003.3,N
1503955615.5,286047007.0,P
1503955635.3,286047002.3,N
1503955655.2,286047001.7,N
1503955675.9,286047001.9,N
1503955695.7,286047004.0,N
1503955715.5,286047001.4,N
1503955735.8,286047004.0,N
1503955755.7,286047004.0,N
1503955775.5,286047003.1,N
1503955795.3,286047003.7,N
1503955815.2,286047001.4,N
1503955835.9,286047000.5,N
1503955855.7,286046999.8,N
1503955875.6,286046998.2,N
1503955895.4,286047002.2,N
1503955915.2,286047002.7,N
1503955935.0,286047000.2,N
1503955936.0,286047000.2,N
1503955955.8,286047004.1,N
1503955975.6,286047004.7,N
1503955995.5,286047006.4,P
1503956015.3,286047007.5,P
1503956035.1,286047007.3,P
1503956055.9,286047008.8,P
1503956075.7,286047003.9,N
1503956095.5,286047002.1,N
1503956115.4,286046999.1,N
1503956135.2,286047000.8,N
1503956155.0,286047001.6,N
1503956155.9,286047001.6,N
1503956175.8,286047004.1,N
1503956195.6,286047000.9,N
1503956215.4,286046999.3,N
1503956235.2,286046996.5,N
1503956255.1,286046997.5,N
1503956256.0,286046997.5,N
1503956275.8,286046995.4,N
1503956295.6,286046995.7,N
1503956315.5,286046998.6,N
1503956335.3,286046999.4,N
1503956355.1,286046998.7,N
1503956375.9,286046998.8,N
1503956395.7,286046995.0,N
1503956415.5,286046997.9,N
1503956435.4,286046997.1,N
1503956455.2,286046999.1,N
1503956475.0,286046998.7,N
1503956475.9,286046998.7,N
1503956495.8,286046999.0,N
1503956515.6,286046999.1,N
1503956535.4,286047000.8,N
1503956555.2,286047000.4,N
1503956575.1,286046998.7,N
1503956576.0,286046998.7,N
1503956595.8,286047000.4,N
1503956615.6,286047002.4,N
1503956635.5,286046999.9,N
1503956655.3,286047000.6,N
1503956675.1,286047000.8,N
1503956695.9,286046998.2,N
1503956715.7,286046999.9,N
1503956735.5,286047000.4,N
1503956755.4,286046999.0,N
1503956775.2,286046998.8,N
1503956795.0,286046999.1,N
1503956795.9,286046999.1,N
1503956815.8,286046998.2,N
1503956835.6,286046999.1,N
1503956855.4,286046999.4,N
1503956875.3,286047000.6,N
1503956895.1,286047000.3,N
1503956896.0,286047000.3,N
1503956915.8,286047000.4,N
1503956935.7,286047000.4,N
1503956955.5,286047000.1,N
1503956975.3,286047000.0,N
1503956995.1,286047000.3,N
1503957015.9,286047002.8,N
1503957035.7,286046998.6,N
1503957055.5,286046998.8,N
1503957075.4,286046998.1,N
1503957095.2,286046998.2,N
1503957115.0,286047004.2,P
1503957116.0,286047004.2,N
1503957135.8,286047004.0,N
1503957155.6,286047001.6,N
1503957175.4,286047004.4,N
1503957195.3,286047001.5,N
1503957215.1,286047004.2,N
1503957235.8,286047003.2,N
1503957255.7,286047003.3,N
1503957275.5,286047003.6,N
1503957295.3,286047003.3,N
1503957315.2,286047003.0,N
1503957335.9,286047002.9,N
1503957355.7,286047005.7,P
1503957375.6,286047003.9,N
1503957395.4,286047003.4,P
1503957415.2,286047005.6,P
1503957435.1,286046999.7,N
1503957436.0,286046999.7,N
1503957455.8,286047000.4,N
1503957475.6,286047000.3,N
1503957495.5,286047001.1,N
1503957515.3,286046998.1,N
1503957535.1,286046998.5,N
1503957555.9,286047002.7,N
1503957575.7,286046999.7,N
1503957595.5,286047002.3,N
